Weather History for Casper, WY

Change the Weather History Date:

Thursday, November 8, 2012

  Actual Average Record
Temperature  
Mean Temperature 41 °F 37 °F  
Max Temperature 54 °F 49 °F 70 °F (1999)
Min Temperature 27 °F 25 °F -8 °F (1966)
Degree Days  
Heating Degree Days 24 28  
Month to date heating degree days 149 213  
Since 1 July heating degree days 920 1112  
Cooling Degree Days 0 0  
Month to date cooling degree days 0 0  
Year to date cooling degree days 697 422  
Moisture  
Dew Point 26 °F    
Average Humidity 60    
Maximum Humidity 85    
Minimum Humidity 35    
Precipitation  
Precipitation 0.00 in 0.03 in 0.58 in (1983)
Month to date precipitation 0.00 0.24  
Year to date precipitation 7.00 11.51  
Snow  
Snow 0.00 in 0.30 in - ()
Month to date snowfall 0.0 2.5  
Since 1 July snowfall 5.2 11.7  
Since 1 September snowfall 5.2 11.7  
Snow Depth 0.00 in    
Sea Level Pressure  
Sea Level Pressure 29.83 in    
Wind  
Wind Speed 9 mph (NE)    
Max Wind Speed 17 mph    
Max Gust Speed 24 mph    
Visibility 10 miles    
Events      
T = Trace of Precipitation, MM = Missing Value Source: NWS Daily Summary

Daily Weather History Graph

Daily Weather History Graph

Search for Another Location

Airport:

Trip Planner

Search our weather history database for the weather conditions in past years. The results will help you decide how hot, cold, wet, or windy it might be!

Date:

Astronomy

Nov. 08, 2012 Rise Set
Actual Time 6:49 AM MST 4:48 PM MST
Civil Twilight 6:19 AM MST 5:19 PM MST
Nautical Twilight 5:45 AM MST 5:52 PM MST
Astronomical Twilight 5:12 AM MST 6:26 PM MST
Moon 12:39 AM MST (11/8) 1:39 PM MST (11/8)
Length of Visible Light 10h 59m
Length of Day
9h 59m
Waning Crescent, 32% of the Moon is Illuminated
Nov 8
Waning Crescent
Nov 13
New
Nov 20
First Quarter
Nov 28
Full
Dec 6
Last Quarter

Hourly Weather History & Observations

Time (MST) Temp. Windchill Dew Point Humidity Pressure Visibility Wind Dir Wind Speed Gust Speed Precip Events Conditions
12:53 AM 41.0 °F 34.7 °F 26.1 °F 55% 29.85 in 10.0 mi North 10.4 mph 17.3 mph N/A   Clear
1:53 AM 37.0 °F 29.3 °F 30.0 °F 76% 29.88 in 10.0 mi North 11.5 mph - N/A   Clear
2:53 AM 34.0 °F - 28.0 °F 79% 29.93 in 10.0 mi Calm Calm - N/A   Clear
3:53 AM 30.0 °F 24.1 °F 26.1 °F 85% 29.94 in 10.0 mi NE 5.8 mph - N/A   Clear
4:46 AM 32.0 °F 24.8 °F 26.6 °F 80% 30.01 in 10.0 mi NNE 8.1 mph - N/A   Mostly Cloudy
4:53 AM 30.9 °F 23.5 °F 27.0 °F 85% 29.98 in 10.0 mi NNE 8.1 mph - N/A   Scattered Clouds
5:53 AM 28.0 °F 21.7 °F 25.0 °F 88% 29.99 in 10.0 mi NE 5.8 mph - N/A   Scattered Clouds
6:53 AM 28.0 °F 20.8 °F 25.0 °F 88% 30.00 in 10.0 mi ENE 6.9 mph - N/A   Clear
7:53 AM 32.0 °F 25.6 °F 26.1 °F 79% 29.99 in 10.0 mi NE 6.9 mph - N/A   Clear
8:53 AM 39.0 °F 29.9 °F 24.1 °F 55% 29.95 in 10.0 mi East 17.3 mph 21.9 mph N/A   Clear
9:53 AM 42.1 °F 34.9 °F 24.1 °F 49% 29.91 in 10.0 mi East 13.8 mph - N/A   Clear
10:53 AM 45.0 °F 38.5 °F 24.1 °F 44% 29.88 in 10.0 mi East 13.8 mph - N/A   Clear
11:53 AM 46.9 °F - 24.1 °F 41% 29.82 in 10.0 mi East 13.8 mph - N/A   Clear
12:53 PM 51.1 °F - 25.0 °F 36% 29.76 in 10.0 mi East 11.5 mph 20.7 mph N/A   Clear
1:53 PM 53.1 °F - 26.1 °F 35% 29.73 in 10.0 mi East 12.7 mph - N/A   Clear
2:53 PM 54.0 °F - 27.0 °F 35% 29.71 in 10.0 mi East 10.4 mph - N/A   Clear
3:53 PM 52.0 °F - 27.0 °F 38% 29.72 in 10.0 mi East 12.7 mph - N/A   Clear
4:53 PM 46.9 °F - 27.0 °F 46% 29.73 in 10.0 mi East 12.7 mph - N/A   Clear
5:53 PM 44.1 °F 41.5 °F 28.0 °F 53% 29.75 in 10.0 mi Variable 4.6 mph - N/A   Clear
6:53 PM 34.0 °F 28.8 °F 25.0 °F 70% 29.79 in 10.0 mi North 5.8 mph - N/A   Clear
7:53 PM 36.0 °F - 27.0 °F 70% 29.75 in 10.0 mi Calm Calm - N/A   Clear
8:53 PM 30.9 °F 27.5 °F 24.1 °F 76% 29.73 in 10.0 mi NW 3.5 mph - N/A   Clear
9:53 PM 30.0 °F 24.1 °F 24.1 °F 79% 29.71 in 10.0 mi NNE 5.8 mph - N/A   Clear
10:53 PM 28.9 °F 21.9 °F 24.1 °F 82% 29.70 in 10.0 mi WNW 6.9 mph - N/A   Clear
11:53 PM 30.0 °F 23.2 °F 24.1 °F 79% 29.67 in 10.0 mi NNW 6.9 mph - N/A   Clear